,

(GMT )
Al Udeid

Weather History for KQIR - December, 2012

Change the Weather History Date:

Monday, December 24, 2012

  Actual Average Record
Temperature  
Mean Temperature 72 °F -  
Max Temperature 81 °F - - ()
Min Temperature 63 °F - - ()
Cooling Degree Days 7    
Growing Degree Days 22 (Base 50)    
Moisture  
Dew Point 63 °F    
Average Humidity 88    
Maximum Humidity 100    
Minimum Humidity 47    
Precipitation  
Precipitation 0.00 in - - ()
Sea Level Pressure  
Sea Level Pressure 30.07 in    
Wind  
Wind Speed 8 mph ()    
Max Wind Speed 16 mph    
Max Gust Speed -    
Visibility 3.0 miles    
Events Fog    
Averages and records for this station are not official NWS values.
T = Trace of Precipitation, MM = Missing Value Source: Averaged Metar Reports

Daily Weather History Graph

Daily Weather History Graph

Search for Another Location

Airport or City:

Trip Planner

Search our weather history database for the weather conditions in past years. The results will help you decide how hot, cold, wet, or windy it might be!

Date:

Astronomy

Dec. 24, 2012 Rise Set
Actual Time 6:17 AM +03 4:51 PM +03
Civil Twilight 5:52 AM +03 5:16 PM +03
Nautical Twilight 5:23 AM +03 5:45 PM +03
Astronomical Twilight 4:55 AM +03 6:13 PM +03
Moon 1:56 PM +03 (12/24) 2:43 AM +03 (12/24)
Length of Visible Light 11h 24m
Length of Day
10h 34m
Waxing Gibbous, 86% of the Moon is Illuminated
Dec 24
Waxing Gibbous
Dec 28
Full
Jan 5
Last Quarter
Jan 11
New
Jan 19
First Quarter

Hourly Weather History & Observations

Time (+03) Temp. Heat Index Dew Point Humidity Pressure Visibility Wind Dir Wind Speed Gust Speed Precip Events Conditions
12:55 AM 63.7 °F - 62.6 °F 96% 30.08 in 5.0 mi West 6.9 mph - N/A   Clear
1:55 AM 63.0 °F - 62.1 °F 97% 30.07 in 3.7 mi WNW 6.9 mph - N/A   Clear
2:55 AM 64.2 °F - 63.5 °F 98% 30.06 in 5.6 mi NW 9.2 mph - N/A   Clear
3:32 AM 64.4 °F - 64.4 °F 100% 30.06 in - WNW 8.1 mph - N/A   Clear
3:35 AM 64.4 °F - 64.4 °F 100% 30.06 in 2.5 mi WNW 9.2 mph - N/A   Clear
3:36 AM 64.4 °F - 64.4 °F 100% 30.06 in - WNW 9.2 mph - N/A   Partly Cloudy
3:37 AM 64.4 °F - 64.4 °F 100% 30.06 in 1.5 mi WNW 8.1 mph - N/A   Partly Cloudy
3:38 AM 64.4 °F - 64.4 °F 100% 30.06 in 1.2 mi WNW 8.1 mph - N/A   Partly Cloudy
3:39 AM 64.4 °F - 64.4 °F 100% 30.06 in 1.0 mi WNW 8.1 mph - N/A   Mist
3:41 AM 64.4 °F - 64.4 °F 100% 30.06 in 0.7 mi WNW 9.2 mph - N/A   Mist
3:44 AM 64.4 °F - 64.4 °F 100% 30.06 in 0.5 mi WNW 9.2 mph - N/A Fog Fog
3:45 AM 64.4 °F - 64.4 °F 100% 30.06 in 0.5 mi WNW 9.2 mph - N/A Fog Fog
3:47 AM 64.4 °F - 64.4 °F 100% 30.06 in 0.5 mi WNW 8.1 mph - N/A Fog Fog
3:55 AM 64.6 °F - 64.0 °F 98% 30.06 in 0.5 mi WNW 6.9 mph - N/A Fog Fog
4:09 AM 64.4 °F - 64.4 °F 100% 30.06 in 0.5 mi WNW 6.9 mph - N/A Fog Fog
4:22 AM 64.4 °F - 64.4 °F 100% 30.06 in 0.5 mi WNW 9.2 mph - N/A Fog Fog
4:55 AM 64.6 °F - 64.2 °F 99% 30.07 in 0.5 mi NW 11.5 mph - N/A Fog Fog
5:19 AM 64.4 °F - 64.4 °F 100% 30.08 in 0.7 mi NW 11.5 mph - N/A   Mist
5:24 AM 64.4 °F - 64.4 °F 100% 30.08 in 0.5 mi NW 12.7 mph - N/A Fog Fog
5:55 AM 64.9 °F - 64.6 °F 99% 30.09 in 0.5 mi NW 12.7 mph - N/A Fog Fog
6:11 AM 64.4 °F - 64.4 °F 100% 30.10 in 0.2 mi NW 11.5 mph - N/A Fog Fog
6:55 AM 64.9 °F - 64.6 °F 99% 30.11 in 0.2 mi NW 11.5 mph - N/A Fog Fog
7:07 AM 64.4 °F - 64.4 °F 100% 30.11 in 0.5 mi NW 10.4 mph - N/A Fog Fog
7:20 AM 66.2 °F - 64.4 °F 94% 30.11 in 0.7 mi NW 10.4 mph - N/A   Mist
7:21 AM 66.2 °F - 64.4 °F 94% 30.11 in 0.7 mi NW 9.2 mph - N/A   Mist
7:22 AM 66.2 °F - 64.4 °F 94% 30.11 in 0.7 mi NW 9.2 mph - N/A   Mist
7:26 AM 66.2 °F - 64.4 °F 94% 30.12 in 1.0 mi NW 11.5 mph - N/A   Mist
7:29 AM 66.2 °F - 64.4 °F 94% 30.12 in 1.2 mi NW 11.5 mph - N/A   Mostly Cloudy
7:31 AM 66.2 °F - 64.4 °F 94% 30.12 in 1.5 mi NW 11.5 mph - N/A   Mostly Cloudy
7:33 AM 66.2 °F - 64.4 °F 94% 30.12 in 1.7 mi NW 11.5 mph - N/A   Mostly Cloudy
7:34 AM 66.2 °F - 64.4 °F 94% 30.11 in 1.7 mi NW 11.5 mph - N/A   Scattered Clouds
7:35 AM 66.2 °F - 64.4 °F 94% 30.11 in - NW 10.4 mph - N/A   Scattered Clouds
7:38 AM 66.2 °F - 64.4 °F 94% 30.11 in 2.5 mi NW 12.7 mph - N/A   Scattered Clouds
7:41 AM 66.2 °F - 66.2 °F 100% 30.12 in - NW 12.7 mph - N/A   Scattered Clouds
7:46 AM 66.2 °F - 66.2 °F 100% 30.12 in 3.7 mi NW 12.7 mph - N/A   Partly Cloudy
7:55 AM 66.2 °F - 65.8 °F 99% 30.12 in 3.7 mi NW 11.5 mph - N/A   Clear
8:55 AM 70.2 °F - 66.2 °F 87% 30.12 in 6.2 mi NNW 12.7 mph - N/A   Clear
9:55 AM 74.1 °F - 64.9 °F 73% 30.11 in 6.2 mi NNW 16.1 mph - N/A   Clear
10:55 AM 76.8 °F - 61.7 °F 59% 30.10 in 6.2 mi NNW 6.9 mph - N/A   Clear
11:55 AM 79.0 °F - 59.4 °F 51% 30.06 in 6.2 mi NNW 8.1 mph - N/A   Clear
12:55 PM 79.9 °F - 60.8 °F 52% 30.04 in 6.2 mi NW 8.1 mph - N/A   Clear
1:55 PM 80.8 °F 81.3 °F 59.2 °F 48% 30.01 in 6.2 mi NW 10.4 mph - N/A   Clear
2:55 PM 81.0 °F 81.5 °F 59.4 °F 48% 30.01 in 6.2 mi NNW 8.1 mph - N/A   Clear
3:55 PM 80.4 °F 80.9 °F 58.6 °F 47% 30.00 in 6.2 mi NNW 10.4 mph - N/A   Clear
4:55 PM 77.0 °F - 61.5 °F 59% 30.01 in 6.2 mi NW 11.5 mph - N/A   Clear
5:55 PM 73.6 °F - 57.6 °F 57% 30.04 in 6.2 mi NW 8.1 mph - N/A   Clear
6:55 PM 71.1 °F - 61.3 °F 71% 30.05 in 6.2 mi NNW 9.2 mph - N/A   Clear
7:55 PM 71.2 °F - 61.5 °F 71% 30.06 in 6.2 mi North 6.9 mph - N/A   Clear
8:55 PM 68.0 °F - 61.2 °F 79% 30.05 in 6.2 mi NNW 3.5 mph - N/A   Clear
9:55 PM 66.0 °F - 61.0 °F 84% 30.05 in 6.2 mi NNW 4.6 mph - N/A   Clear
10:55 PM 67.5 °F - 62.1 °F 83% 30.03 in 6.2 mi North 4.6 mph - N/A   Clear
11:55 PM 64.2 °F - 61.0 °F 89% 30.02 in 6.2 mi Calm Calm - N/A   Clear